Zurück zum Katalog

STARLINK-34153

AktivKommunikationVLEO
NORAD 63967·PAYLOAD·🇺🇸 United States

Gestartet May 13, 2025 von Cape Canaveral Space Force Station

Loading…

Nächste Überflüge (nächste 24 Stunden)

TLE

AktuellSource: CelesTrak SupGP

Epoche: Sep 14, 2026, 21:27 UTC

1 63967C 25099R   26257.89423611 -.00008719  00000+0 -31598-3 0  2574
2 63967  43.0015 187.3689 0001434 259.6180 199.7970 15.27564367    10

Verfolge STARLINK-34153 in Echtzeit mit AllMySat

Download on the App Store